Location: *
(2.7500°S, 66.6833°W)
Time: 23:53:38
(UTC+00:00)

Cosmos 1867 - Pass Details

Date: 24 May 2024
Orbit: 772 x 802 km, 65.0° (Epoch: 13 June)

Event Time Altitude Azimuth Distance (km) Brightness Sun altitude
Rises 22:45:56 0° 336° (NNW) 3,279 7.5 -6.2°
Reaches altitude 10° 22:48:22 10° 335° (NNW) 2,349 6.8 -6.7°
Maximum altitude 22:53:46 79° 248° (WSW) 803 3.7 -8.0°
Drops below altitude 10° 22:59:09 10° 162° (SSE) 2,340 5.6 -9.3°
Sets 23:01:33 0° 161° (SSE) 3,266 6.4 -9.8°
